{"data":{"norad_id":65889,"intl_designator":"2025-224H","name":"STARLINK-35193","alt_names":[],"object_type":"PAYLOAD","status":"ACTIVE","operator":null,"country":"US","launch_date":"2025-10-07","launch_site_code":"AFETR","launch_vehicle":null,"mission":null,"orbit_class":"UNKNOWN","rcs_meters":null,"size_class":null,"mass_kg":null,"dimensions":null,"purposes":["comms"],"wikipedia_slug":null,"has_3d_model":false,"image_url":null,"decayed_at":null,"tle_current":{"epoch":"2026-05-25T01:30:45.684864Z","epoch_age_seconds":69684,"freshness":"FRESH","line1":"1 65889U 25224H   26145.06302876  .00030058  00000+0  10225-2 0  9998","line2":"2 65889  53.1584  16.8672 0001125  96.1452 263.9677 15.30212991 36541","mean_motion":15.30212991,"eccentricity":0.0001125,"inclination_deg":53.1584,"raan_deg":16.8672,"arg_perigee_deg":96.1452,"mean_anomaly_deg":263.9677,"bstar":0.0010225,"rev_number":3654,"period_min":94.104546783318,"perigee_km":474.40528316529,"apogee_km":475.94727865349,"semimajor_km":6853.3132809094,"source":"CELESTRAK","updated_at":"2026-05-25T13:38:20.980262Z"}}}